Location: ??
(35.3149°N, 139.6204°E)
Time: 11:21:41
(UTC+00:00)

Cosmos 1455 - Pass Details

Date: 03 August 2024
Orbit: 433 x 446 km, 82.5° (Epoch: 06 September)

Event Time Altitude Azimuth Distance (km) Brightness Sun altitude
Rises 19:07:37 0° 177° (S) 2,477 5.4 -9.1°
Reaches altitude 10° 19:09:42 10° 173° (S) 1,605 4.5 -8.7°
Maximum altitude 19:13:09 56° 94° (E) 555 2.7 -8.1°
Drops below altitude 10° 19:16:35 10° 16° (NNE) 1,608 5.4 -7.5°
Sets 19:18:41 0° 12° (NNE) 2,482 6.3 -7.1°
